Location: Melbourne
(37.8170°S, 144.9670°E)
Time: 15:19:54
(UTC+10:00)

Transit 2A - All Passes

Search period start: 27 April 2017 00:00
Search period end: 07 May 2017 00:00
Orbit: 602 x 958 km, 66.7° (Epoch: 25 April)

Date Brightness Start Highest point End Pass type
(mag) Time Alt. Az. Time Alt. Az. Time Alt. Az.
27 Apr - 08:41:06 10° NE 08:44:48 17° ENE 08:48:39 10° ESE daylight
27 Apr - 10:21:14 10° NW 10:27:18 74° WSW 10:33:44 10° SSE daylight
27 Apr - 12:08:09 10° WSW 12:11:43 15° SW 12:15:22 10° S daylight
27 Apr - 17:29:38 10° SSE 17:32:24 13° SE 17:35:03 10° ESE daylight
27 Apr - 19:10:54 10° SSW 19:16:57 67° ESE 19:22:23 10° NE visible
27 Apr - 20:55:57 10° WSW 20:59:24 16° WNW 21:02:40 10° NW visible
28 Apr - 08:09:41 10° ENE 08:11:07 11° E 08:12:34 10° E daylight
28 Apr - 09:47:14 10° NNW 09:53:17 80° ENE 09:59:42 10° SSE daylight
28 Apr - 11:32:49 10° W 11:37:20 20° SW 11:41:57 10° S daylight
28 Apr - 18:36:59 10° SSW 18:42:50 47° SE 18:48:07 10° NE visible
28 Apr - 20:21:02 10° SW 20:25:40 24° WNW 20:29:57 10° NNW visible
29 Apr - 09:13:26 10° N 09:19:19 57° ENE 09:25:34 10° SE daylight
29 Apr - 10:57:49 10° WNW 11:03:00 27° SW 11:08:21 10° S daylight
29 Apr - 18:03:10 10° SSW 18:08:38 34° SE 18:13:39 10° ENE visible
29 Apr - 19:46:32 10° SW 19:51:52 36° WNW 19:56:45 10° N visible
30 Apr - 08:39:53 10° N 08:45:26 39° ENE 08:51:18 10° SE daylight
30 Apr - 10:23:07 10° WNW 10:28:45 36° SW 10:34:36 10° SSE daylight
30 Apr - 17:29:27 10° S 17:34:21 25° SE 17:38:55 10° ENE daylight
30 Apr - 19:12:13 10° SW 19:18:01 53° WNW 19:23:14 10° N visible
01 May - 08:06:37 10° NNE 08:11:37 27° ENE 08:16:50 10° SE daylight
01 May - 09:48:38 10° NW 09:54:34 49° SW 10:00:47 10° SSE daylight
01 May - 11:37:58 10° SW 11:39:27 11° SW 11:40:56 10° SSW daylight
01 May - 16:55:54 10° S 17:00:01 18° SE 17:03:55 10° E daylight
01 May - 18:38:05 10° SSW 18:44:05 79° WNW 18:49:27 10° NNE visible
02 May - 07:33:47 10° NE 07:37:51 19° ENE 07:42:04 10° ESE daylight
02 May - 09:14:21 10° NW 09:20:26 68° WSW 09:26:52 10° SSE daylight
02 May - 11:01:39 10° WSW 11:04:57 14° SW 11:08:18 10° S daylight
02 May - 16:22:36 10° S 16:25:36 14° SE 16:28:30 10° ESE daylight
02 May - 18:04:02 10° SSW 18:10:04 73° ESE 18:15:27 10° NE visible
02 May - 19:49:28 10° WSW 19:52:24 14° W 19:55:13 10° NW visible
03 May - 07:01:48 10° ENE 07:04:09 12° E 07:06:32 10° ESE daylight
03 May - 08:40:18 10° NNW 08:46:24 87° ENE 08:52:51 10° SSE daylight
03 May - 10:26:12 10° W 10:30:32 19° SW 10:34:58 10° S daylight
03 May - 15:50:22 10° SSE 15:51:06 10° SE 15:51:50 10° SE daylight
03 May - 17:30:06 10° SSW 17:35:58 51° ESE 17:41:14 10° NE daylight
03 May - 19:14:22 10° SW 19:18:42 22° WNW 19:22:42 10° NNW visible
04 May - 08:06:26 10° NNW 08:12:26 62° ENE 08:18:45 10° SE daylight
04 May - 09:51:08 10° WNW 09:56:12 25° SW 10:01:23 10° S daylight
04 May - 16:56:16 10° SSW 17:01:47 36° SE 17:06:49 10° ENE daylight
04 May - 18:39:46 10° SW 18:44:55 32° WNW 18:49:36 10° N visible
05 May - 07:32:50 10° N 07:38:32 43° ENE 07:44:31 10° SE daylight
05 May - 09:16:21 10° WNW 09:21:55 34° SW 09:27:41 10° SSE daylight
05 May - 16:22:32 10° S 16:27:32 26° SE 16:32:09 10° ENE daylight
05 May - 18:05:26 10° SW 18:11:05 48° WNW 18:16:09 10° N visible
06 May - 06:59:29 10° NNE 07:04:41 30° ENE 07:10:07 10° SE daylight
06 May - 08:41:49 10° NW 08:47:43 46° SW 08:53:52 10° SSE daylight
06 May - 10:32:33 10° SW 10:32:41 10° SW 10:32:49 10° SSW daylight
06 May - 15:48:56 10° S 15:53:12 20° SE 15:57:12 10° E daylight
06 May - 17:31:14 10° SSW 17:37:09 72° WNW 17:42:26 10° NNE daylight
